Wetterdaten: Donnerstag, 01.09.2016
Datum Zeit Temp. A. Aussentemp2 Feuchte A. Luftdruck Regen Wind Richtung Richtung Sonnenschein Helligkeit Solar
01.09.2016 00:05 18,1 C 22,6 C 66 % 1018,7 hPa 0,0 l/m 0,0 km/h (0 Bft) O 85 0 min 0 lux 0 W/m
01.09.2016 00:09 18,0 C 22,7 C 66 % 1018,7 hPa 0,0 l/m 0,0 km/h (0 Bft) O 85 0 min 0 lux 0 W/m
01.09.2016 00:15 17,7 C 22,5 C 66 % 1018,7 hPa 0,0 l/m 0,0 km/h (0 Bft) O 85 0 min 0 lux 0 W/m
01.09.2016 00:19 17,6 C 22,5 C 68 % 1018,7 hPa 0,0 l/m 0,0 km/h (0 Bft) O 85 0 min 0 lux 0 W/m
01.09.2016 00:24 17,4 C 22,4 C 67 % 1018,7 hPa 0,0 l/m 0,0 km/h (0 Bft) O 85 0 min 0 lux 0 W/m
01.09.2016 00:29 17,3 C 22,3 C 67 % 1018,7 hPa 0,0 l/m 0,0 km/h (0 Bft) O 85 0 min 0 lux 0 W/m
01.09.2016 00:34 17,2 C 22,4 C 68 % 1018,7 hPa 0,0 l/m 0,0 km/h (0 Bft) O 85 0 min 0 lux 0 W/m
01.09.2016 00:39 17,0 C 22,4 C 68 % 1018,7 hPa 0,0 l/m 0,0 km/h (0 Bft) O 85 0 min 0 lux 0 W/m
01.09.2016 00:45 16,9 C 22,4 C 68 % 1018,7 hPa 0,0 l/m 0,0 km/h (0 Bft) O 85 0 min 0 lux 0 W/m
01.09.2016 00:49 16,7 C 22,4 C 70 % 1018,7 hPa 0,0 l/m 4,1 km/h (1 Bft) O 85 0 min 0 lux 0 W/m
01.09.2016 00:54 16,3 C 22,2 C 70 % 1018,7 hPa 0,0 l/m 5,1 km/h (1 Bft) N-NO45 30 0 min 0 lux 0 W/m
01.09.2016 00:59 16,4 C 22,2 C 73 % 1018,7 hPa 0,0 l/m 7,6 km/h (2 Bft) N-NW45 340 0 min 0 lux 0 W/m
01.09.2016 01:05 16,7 C 22,1 C 71 % 1018,7 hPa 0,0 l/m 8,5 km/h (2 Bft) W-NW 290 0 min 0 lux 0 W/m
01.09.2016 01:09 16,5 C 22,1 C 71 % 1018,7 hPa 0,0 l/m 0,3 km/h (0 Bft) W-NW 290 0 min 0 lux 0 W/m
01.09.2016 01:14 16,8 C 22,2 C 73 % 1018,7 hPa 0,0 l/m 8,2 km/h (2 Bft) W-NW 285 0 min 0 lux 0 W/m
01.09.2016 01:19 16,9 C 22,2 C 72 % 1018,7 hPa 0,0 l/m 7,2 km/h (2 Bft) W 280 0 min 0 lux 0 W/m
01.09.2016 01:24 17,2 C 22,1 C 71 % 1018,7 hPa 0,0 l/m 6,3 km/h (2 Bft) W 270 0 min 0 lux 0 W/m
01.09.2016 01:29 17,5 C 22,2 C 70 % 1019,7 hPa 0,0 l/m 7,1 km/h (2 Bft) W 270 0 min 0 lux 0 W/m
01.09.2016 01:35 17,6 C 22,2 C 70 % 1019,7 hPa 0,0 l/m 6,2 km/h (2 Bft) W 270 0 min 0 lux 0 W/m
01.09.2016 01:39 17,4 C 22,1 C 69 % 1018,7 hPa 0,0 l/m 0,2 km/h (0 Bft) W 270 0 min 0 lux 0 W/m
01.09.2016 01:44 17,2 C 22,1 C 70 % 1019,7 hPa 0,0 l/m 0,0 km/h (0 Bft) W 270 0 min 0 lux 0 W/m
01.09.2016 01:49 17,2 C 22,1 C 70 % 1019,7 hPa 0,0 l/m 4,9 km/h (1 Bft) W 270 0 min 0 lux 0 W/m
01.09.2016 01:54 17,1 C 22,0 C 70 % 1019,7 hPa 0,0 l/m 4,9 km/h (1 Bft) W 270 0 min 0 lux 0 W/m
01.09.2016 01:59 17,2 C 22,1 C 70 % 1019,7 hPa 0,0 l/m 5,7 km/h (2 Bft) W 270 0 min 0 lux 0 W/m
01.09.2016 02:04 17,2 C 22,2 C 70 % 1019,7 hPa 0,0 l/m 3,5 km/h (1 Bft) W-NW 285 0 min 0 lux 0 W/m
01.09.2016 02:09 17,1 C 22,0 C 69 % 1019,7 hPa 0,0 l/m 0,6 km/h (0 Bft) W-NW 285 0 min 0 lux 0 W/m
01.09.2016 02:14 17,0 C 22,0 C 69 % 1019,7 hPa 0,0 l/m 0,0 km/h (0 Bft) W-NW 285 0 min 0 lux 0 W/m
01.09.2016 02:19 16,6 C 22,0 C 70 % 1019,7 hPa 0,0 l/m 0,0 km/h (0 Bft) W-NW 285 0 min 0 lux 0 W/m
01.09.2016 02:25 16,6 C 22,1 C 70 % 1019,7 hPa 0,0 l/m 0,3 km/h (0 Bft) W-NW 285 0 min 0 lux 0 W/m
01.09.2016 02:29 16,8 C 21,9 C 71 % 1019,7 hPa 0,0 l/m 4,6 km/h (1 Bft) W-NW 285 0 min 0 lux 0 W/m
01.09.2016 02:34 17,1 C 21,9 C 71 % 1019,7 hPa 0,0 l/m 10,4 km/h (2 Bft) W22.5 275 0 min 0 lux 0 W/m
01.09.2016 02:39 17,2 C 21,9 C 71 % 1019,7 hPa 0,0 l/m 6,8 km/h (2 Bft) W 265 0 min 0 lux 0 W/m
01.09.2016 02:44 17,2 C 22,0 C 71 % 1019,7 hPa 0,0 l/m 7,1 km/h (2 Bft) NW 305 0 min 0 lux 0 W/m
01.09.2016 02:50 17,2 C 22,0 C 71 % 1019,7 hPa 0,0 l/m 5,9 km/h (2 Bft) W-NW22.5 285 0 min 0 lux 0 W/m
01.09.2016 02:54 17,2 C 21,9 C 71 % 1019,7 hPa 0,0 l/m 5,0 km/h (1 Bft) W 275 0 min 0 lux 0 W/m
01.09.2016 02:59 17,2 C 21,9 C 72 % 1019,7 hPa 0,0 l/m 7,4 km/h (2 Bft) W-NW 285 0 min 0 lux 0 W/m
01.09.2016 03:04 17,2 C 21,9 C 72 % 1019,7 hPa 0,0 l/m 4,9 km/h (1 Bft) W-NW 285 0 min 0 lux 0 W/m
01.09.2016 03:09 17,2 C 21,8 C 71 % 1019,7 hPa 0,0 l/m 0,0 km/h (0 Bft) W-NW 285 0 min 0 lux 0 W/m
01.09.2016 03:14 17,0 C 21,8 C 71 % 1019,7 hPa 0,0 l/m 0,5 km/h (0 Bft) W-NW 285 0 min 0 lux 0 W/m
01.09.2016 03:19 16,8 C 21,9 C 72 % 1019,7 hPa 0,0 l/m 4,6 km/h (1 Bft) W-NW 285 0 min 0 lux 0 W/m
01.09.2016 03:24 16,9 C 21,8 C 72 % 1019,7 hPa 0,0 l/m 9,0 km/h (2 Bft) W-NW 290 0 min 0 lux 0 W/m
01.09.2016 03:29 17,0 C 21,8 C 71 % 1019,7 hPa 0,0 l/m 9,4 km/h (2 Bft) W-NW 285 0 min 0 lux 0 W/m
01.09.2016 03:34 17,2 C 21,7 C 71 % 1019,7 hPa 0,0 l/m 12,3 km/h (2 Bft) W-NW22.5 295 0 min 0 lux 0 W/m
01.09.2016 03:40 17,2 C 21,6 C 71 % 1019,7 hPa 0,0 l/m 14,1 km/h (3 Bft) W-NW22.5 285 0 min 0 lux 0 W/m
01.09.2016 03:44 17,2 C 21,7 C 71 % 1019,7 hPa 0,0 l/m 12,5 km/h (2 Bft) W-NW22.5 295 0 min 0 lux 0 W/m
01.09.2016 03:49 17,2 C 21,8 C 71 % 1019,7 hPa 0,0 l/m 9,4 km/h (2 Bft) W-NW22.5 290 0 min 0 lux 0 W/m
01.09.2016 03:54 17,1 C 21,8 C 71 % 1019,7 hPa 0,0 l/m 5,0 km/h (1 Bft) W-NW 295 0 min 0 lux 0 W/m
01.09.2016 03:59 17,1 C 21,7 C 71 % 1019,7 hPa 0,0 l/m 5,0 km/h (1 Bft) W-NW 295 0 min 0 lux 0 W/m
01.09.2016 04:04 17,0 C 21,6 C 71 % 1019,7 hPa 0,0 l/m 5,9 km/h (2 Bft) W-NW 295 0 min 0 lux 0 W/m
01.09.2016 04:09 16,8 C 21,6 C 72 % 1019,7 hPa 0,0 l/m 5,6 km/h (2 Bft) W-NW 295 0 min 0 lux 0 W/m
01.09.2016 04:14 16,8 C 21,7 C 72 % 1019,7 hPa 0,0 l/m 6,5 km/h (2 Bft) W-NW 295 0 min 0 lux 0 W/m
01.09.2016 04:19 16,6 C 21,5 C 72 % 1019,7 hPa 0,0 l/m 5,8 km/h (2 Bft) W-NW 295 0 min 0 lux 0 W/m
01.09.2016 04:24 16,4 C 21,5 C 73 % 1019,7 hPa 0,0 l/m 2,2 km/h (1 Bft) W-NW 295 0 min 0 lux 0 W/m
01.09.2016 04:30 16,3 C 21,4 C 72 % 1019,7 hPa 0,0 l/m 0,1 km/h (0 Bft) W-NW 295 0 min 0 lux 0 W/m
01.09.2016 04:34 16,2 C 21,4 C 72 % 1019,7 hPa 0,0 l/m 0,0 km/h (0 Bft) W-NW 295 0 min 0 lux 0 W/m
01.09.2016 04:39 15,9 C 21,5 C 72 % 1019,7 hPa 0,0 l/m 0,0 km/h (0 Bft) W-NW 295 0 min 0 lux 0 W/m
01.09.2016 04:44 15,8 C 21,5 C 74 % 1019,7 hPa 0,0 l/m 5,7 km/h (2 Bft) W-NW 295 0 min 0 lux 0 W/m
01.09.2016 04:49 15,8 C 21,4 C 74 % 1019,7 hPa 0,0 l/m 3,3 km/h (1 Bft) W-NW 295 0 min 0 lux 0 W/m
01.09.2016 04:54 15,5 C 21,3 C 73 % 1019,7 hPa 0,0 l/m 0,0 km/h (0 Bft) W-NW 290 0 min 0 lux 0 W/m
01.09.2016 04:59 15,5 C 21,4 C 74 % 1019,7 hPa 0,0 l/m 0,0 km/h (0 Bft) W-NW 290 0 min 0 lux 0 W/m
01.09.2016 05:04 15,5 C 21,3 C 74 % 1019,7 hPa 0,0 l/m 0,0 km/h (0 Bft) W-NW 290 0 min 0 lux 0 W/m
01.09.2016 05:09 15,4 C 21,3 C 74 % 1019,7 hPa 0,0 l/m 0,0 km/h (0 Bft) W-NW 290 0 min 0 lux 0 W/m
01.09.2016 05:14 15,2 C 21,3 C 74 % 1019,7 hPa 0,0 l/m 0,1 km/h (0 Bft) W-NW 290 0 min 0 lux 0 W/m
01.09.2016 05:19 15,0 C 21,3 C 74 % 1019,7 hPa 0,0 l/m 0,4 km/h (0 Bft) W-NW 290 0 min 0 lux 0 W/m
01.09.2016 05:24 15,0 C 21,2 C 74 % 1019,7 hPa 0,0 l/m 0,5 km/h (0 Bft) W-NW 290 0 min 0 lux 0 W/m
01.09.2016 05:29 15,1 C 21,2 C 75 % 1019,7 hPa 0,0 l/m 0,0 km/h (0 Bft) W-NW 290 0 min 0 lux 0 W/m
01.09.2016 05:34 15,0 C 21,2 C 75 % 1019,7 hPa 0,0 l/m 0,0 km/h (0 Bft) W-NW 290 0 min 0 lux 0 W/m
01.09.2016 05:39 15,0 C 21,2 C 75 % 1019,7 hPa 0,0 l/m 0,4 km/h (0 Bft) W-NW 290 0 min 0 lux 0 W/m
01.09.2016 05:45 15,1 C 21,1 C 75 % 1019,7 hPa 0,0 l/m 0,0 km/h (0 Bft) W-NW 290 0 min 0 lux 0 W/m
01.09.2016 05:49 15,0 C 21,1 C 75 % 1019,7 hPa 0,0 l/m 0,0 km/h (0 Bft) W-NW 290 0 min 0 lux 0 W/m
01.09.2016 05:54 15,0 C 21,1 C 75 % 1019,7 hPa 0,0 l/m 0,0 km/h (0 Bft) W-NW 290 0 min 0 lux 0 W/m
01.09.2016 05:59 15,0 C 21,2 C 76 % 1019,7 hPa 0,0 l/m 0,0 km/h (0 Bft) W-NW 290 0 min 0 lux 0 W/m
01.09.2016 06:04 15,0 C 21,0 C 76 % 1019,7 hPa 0,0 l/m 0,0 km/h (0 Bft) W-NW 295 0 min 0 lux 0 W/m
01.09.2016 06:09 15,0 C 21,0 C 76 % 1019,7 hPa 0,0 l/m 0,0 km/h (0 Bft) W-NW 295 0 min 0 lux 0 W/m
01.09.2016 06:14 15,0 C 21,1 C 77 % 1019,7 hPa 0,0 l/m 0,3 km/h (0 Bft) W-NW 290 0 min 0 lux 0 W/m
01.09.2016 06:19 15,0 C 21,0 C 77 % 1019,7 hPa 0,0 l/m 0,0 km/h (0 Bft) W-NW 290 0 min 0 lux 0 W/m
01.09.2016 06:24 15,0 C 20,9 C 77 % 1019,7 hPa 0,0 l/m 0,0 km/h (0 Bft) W-NW 295 0 min 0 lux 0 W/m
01.09.2016 06:30 15,0 C 20,9 C 77 % 1019,7 hPa 0,0 l/m 0,0 km/h (0 Bft) W-NW 295 0 min 59 lux 0 W/m
01.09.2016 06:34 15,0 C 20,9 C 77 % 1019,7 hPa 0,0 l/m 0,0 km/h (0 Bft) W-NW 295 0 min 94 lux 0 W/m
01.09.2016 06:39 15,0 C 20,9 C 78 % 1019,7 hPa 0,0 l/m 0,0 km/h (0 Bft) W-NW 290 0 min 299 lux 0 W/m
01.09.2016 06:44 15,0 C 20,7 C 78 % 1019,7 hPa 0,0 l/m 0,0 km/h (0 Bft) W-NW 295 0 min 643 lux 0 W/m
01.09.2016 06:49 14,8 C 20,7 C 78 % 1019,7 hPa 0,0 l/m 0,0 km/h (0 Bft) W-NW 285 0 min 841 lux 0 W/m
01.09.2016 06:55 14,9 C 20,7 C 78 % 1019,7 hPa 0,0 l/m 0,3 km/h (0 Bft) W 275 0 min 1,31 klux 9 W/m
01.09.2016 06:59 14,9 C 20,7 C 79 % 1019,7 hPa 0,0 l/m 0,0 km/h (0 Bft) W 275 4 min 1,85 klux 13 W/m
01.09.2016 07:04 15,0 C 20,8 C 78 % 1019,7 hPa 0,0 l/m 0,0 km/h (0 Bft) W 265 0 min 2,35 klux 16 W/m
01.09.2016 07:09 14,8 C 20,8 C 78 % 1019,7 hPa 0,0 l/m 0,0 km/h (0 Bft) W 265 0 min 2,84 klux 19 W/m
01.09.2016 07:14 14,8 C 20,7 C 78 % 1020,7 hPa 0,0 l/m 0,0 km/h (0 Bft) W 265 0 min 3,10 klux 21 W/m
01.09.2016 07:19 14,8 C 20,8 C 78 % 1020,7 hPa 0,0 l/m 0,0 km/h (0 Bft) W 265 0 min 4,10 klux 28 W/m
01.09.2016 07:24 15,0 C 20,8 C 79 % 1020,7 hPa 0,0 l/m 0,9 km/h (0 Bft) W-SW22.5 245 0 min 4,97 klux 34 W/m
01.09.2016 07:29 15,3 C 20,8 C 79 % 1020,7 hPa 0,0 l/m 0,9 km/h (0 Bft) SW 230 0 min 5,44 klux 37 W/m
01.09.2016 07:34 15,4 C 20,8 C 79 % 1020,7 hPa 0,0 l/m 4,0 km/h (1 Bft) SW 230 0 min 5,42 klux 37 W/m
01.09.2016 07:39 15,6 C 20,9 C 79 % 1020,7 hPa 0,0 l/m 0,0 km/h (0 Bft) SW 230 0 min 4,93 klux 34 W/m
01.09.2016 07:45 15,8 C 20,5 C 79 % 1020,7 hPa 0,0 l/m 4,5 km/h (1 Bft) SW 230 0 min 4,36 klux 30 W/m
01.09.2016 07:49 15,7 C 19,9 C 79 % 1020,7 hPa 0,0 l/m 0,0 km/h (0 Bft) SW 225 0 min 4,09 klux 28 W/m
01.09.2016 07:54 15,8 C 19,7 C 78 % 1020,7 hPa 0,0 l/m 0,0 km/h (0 Bft) SW 225 0 min 4,31 klux 29 W/m
01.09.2016 07:59 15,8 C 19,7 C 78 % 1020,7 hPa 0,0 l/m 0,0 km/h (0 Bft) SW 225 0 min 5,00 klux 34 W/m
01.09.2016 08:04 15,8 C 19,8 C 78 % 1020,7 hPa 0,0 l/m 5,7 km/h (2 Bft) SW 225 0 min 5,43 klux 37 W/m
01.09.2016 08:09 15,9 C 19,8 C 78 % 1020,7 hPa 0,0 l/m 6,8 km/h (2 Bft) SW 225 0 min 7,79 klux 53 W/m
01.09.2016 08:14 16,1 C 19,4 C 79 % 1020,7 hPa 0,0 l/m 6,9 km/h (2 Bft) SW 220 0 min 8,31 klux 57 W/m
01.09.2016 08:19 16,2 C 19,3 C 79 % 1020,7 hPa 0,0 l/m 10,0 km/h (2 Bft) SW22.5 220 0 min 10,1 klux 69 W/m
01.09.2016 08:24 16,3 C 19,0 C 79 % 1020,7 hPa 0,0 l/m 9,8 km/h (2 Bft) SW45 215 0 min 11,9 klux 81 W/m
01.09.2016 08:29 16,4 C 19,3 C 79 % 1020,7 hPa 0,0 l/m 10,6 km/h (2 Bft) SW22.5 225 0 min 17,3 klux 118 W/m
01.09.2016 08:34 16,7 C 19,3 C 78 % 1020,7 hPa 0,0 l/m 8,5 km/h (2 Bft) SW22.5 215 0 min 11,9 klux 81 W/m
01.09.2016 08:39 16,8 C 19,3 C 78 % 1020,7 hPa 0,0 l/m 9,8 km/h (2 Bft) SW22.5 235 5 min 24,5 klux 168 W/m
01.09.2016 08:44 17,0 C 19,4 C 77 % 1020,7 hPa 0,0 l/m 8,0 km/h (2 Bft) W-SW22.5 240 5 min 23,3 klux 159 W/m
01.09.2016 08:49 17,2 C 19,5 C 77 % 1020,7 hPa 0,0 l/m 6,4 km/h (2 Bft) SW 235 0 min 16,4 klux 112 W/m
01.09.2016 08:54 17,3 C 19,5 C 77 % 1020,7 hPa 0,0 l/m 7,8 km/h (2 Bft) W-SW 240 0 min 22,5 klux 154 W/m
01.09.2016 09:00 17,4 C 19,6 C 77 % 1020,7 hPa 0,0 l/m 6,7 km/h (2 Bft) SW 235 6 min 28,5 klux 195 W/m
01.09.2016 09:04 17,9 C 19,7 C 77 % 1020,7 hPa 0,0 l/m 7,6 km/h (2 Bft) W-SW22.5 255 4 min 31,8 klux 218 W/m
01.09.2016 09:09 18,1 C 19,8 C 76 % 1020,7 hPa 0,0 l/m 7,1 km/h (2 Bft) W-SW22.5 250 5 min 35,0 klux 239 W/m
01.09.2016 09:14 18,2 C 19,6 C 75 % 1020,7 hPa 0,0 l/m 7,8 km/h (2 Bft) SW 225 5 min 36,3 klux 248 W/m
01.09.2016 09:20 18,5 C 19,8 C 75 % 1020,7 hPa 0,0 l/m 6,9 km/h (2 Bft) SW22.5 235 6 min 37,3 klux 255 W/m
01.09.2016 09:24 18,7 C 19,7 C 74 % 1020,7 hPa 0,0 l/m 10,6 km/h (2 Bft) SW45 225 4 min 38,9 klux 266 W/m
01.09.2016 09:29 18,9 C 20,1 C 74 % 1020,7 hPa 0,0 l/m 9,8 km/h (2 Bft) S-SW45 205 5 min 41,0 klux 280 W/m
01.09.2016 09:34 19,1 C 19,9 C 73 % 1020,7 hPa 0,0 l/m 10,0 km/h (2 Bft) S-SW22.5 205 5 min 38,4 klux 263 W/m
01.09.2016 09:39 19,3 C 20,2 C 73 % 1020,7 hPa 0,0 l/m 8,1 km/h (2 Bft) SW22.5 230 5 min 43,8 klux 300 W/m
01.09.2016 09:44 19,5 C 20,4 C 73 % 1020,7 hPa 0,0 l/m 8,1 km/h (2 Bft) S-SW22.5 205 5 min 44,7 klux 306 W/m
01.09.2016 09:49 19,9 C 20,4 C 72 % 1020,7 hPa 0,0 l/m 5,2 km/h (1 Bft) S-SW 200 5 min 46,6 klux 319 W/m
01.09.2016 09:54 20,0 C 20,1 C 71 % 1020,7 hPa 0,0 l/m 11,5 km/h (2 Bft) S-SW22.5 195 5 min 49,1 klux 336 W/m
01.09.2016 09:59 20,0 C 20,2 C 71 % 1020,7 hPa 0,0 l/m 11,1 km/h (2 Bft) S-SW22.5 210 0 min 35,2 klux 241 W/m
01.09.2016 10:05 20,1 C 20,3 C 71 % 1020,7 hPa 0,0 l/m 16,7 km/h (3 Bft) W-SW22.5 240 6 min 47,5 klux 325 W/m
01.09.2016 10:09 20,2 C 20,4 C 71 % 1021,7 hPa 0,0 l/m 18,1 km/h (3 Bft) SW67.5 230 4 min 51,0 klux 349 W/m
01.09.2016 10:14 20,4 C 20,4 C 71 % 1021,7 hPa 0,0 l/m 16,0 km/h (3 Bft) W-SW45 240 5 min 50,9 klux 348 W/m
01.09.2016 10:19 20,5 C 20,5 C 71 % 1021,7 hPa 0,0 l/m 15,5 km/h (3 Bft) W-SW45 255 0 min 34,2 klux 234 W/m
01.09.2016 10:24 20,4 C 20,4 C 70 % 1021,7 hPa 0,0 l/m 19,0 km/h (3 Bft) W-SW45 245 5 min 47,6 klux 326 W/m
01.09.2016 10:29 20,5 C 20,7 C 70 % 1021,7 hPa 0,0 l/m 18,0 km/h (3 Bft) SW45 225 5 min 43,1 klux 295 W/m
01.09.2016 10:35 20,7 C 21,0 C 70 % 1021,7 hPa 0,0 l/m 19,0 km/h (3 Bft) SW45 225 6 min 54,0 klux 369 W/m
01.09.2016 10:39 21,0 C 21,0 C 69 % 1021,7 hPa 0,0 l/m 19,5 km/h (3 Bft) SW22.5 220 4 min 57,9 klux 396 W/m
01.09.2016 10:44 21,1 C 21,0 C 67 % 1020,7 hPa 0,0 l/m 12,5 km/h (2 Bft) S-SW22.5 205 5 min 57,8 klux 395 W/m
01.09.2016 10:49 21,2 C 21,2 C 68 % 1020,7 hPa 0,0 l/m 15,9 km/h (3 Bft) SW45 230 5 min 56,6 klux 387 W/m
01.09.2016 10:54 21,5 C 21,1 C 67 % 1020,7 hPa 0,0 l/m 15,0 km/h (3 Bft) SW45 215 5 min 56,9 klux 389 W/m
01.09.2016 11:00 21,6 C 21,1 C 66 % 1020,7 hPa 0,0 l/m 13,0 km/h (3 Bft) SW22.5 225 6 min 58,7 klux 402 W/m
01.09.2016 11:04 21,6 C 21,4 C 66 % 1020,7 hPa 0,0 l/m 12,8 km/h (3 Bft) SW45 220 4 min 60,5 klux 414 W/m
01.09.2016 11:09 21,8 C 21,3 C 66 % 1020,7 hPa 0,0 l/m 10,1 km/h (2 Bft) W-SW22.5 240 5 min 60,1 klux 411 W/m
01.09.2016 11:14 21,8 C 21,5 C 66 % 1020,7 hPa 0,0 l/m 13,3 km/h (3 Bft) W-SW45 240 5 min 60,1 klux 411 W/m
01.09.2016 11:20 21,9 C 21,7 C 66 % 1020,7 hPa 0,0 l/m 15,0 km/h (3 Bft) W67.5 260 6 min 63,1 klux 432 W/m
01.09.2016 11:24 22,2 C 21,7 C 65 % 1020,7 hPa 0,0 l/m 13,0 km/h (3 Bft) S-SW22.5 210 4 min 64,2 klux 439 W/m
01.09.2016 11:29 22,4 C 21,9 C 64 % 1020,7 hPa 0,0 l/m 13,4 km/h (3 Bft) SW45 215 5 min 63,7 klux 436 W/m
01.09.2016 11:34 22,6 C 21,9 C 63 % 1020,6 hPa 0,0 l/m 13,7 km/h (3 Bft) SW67.5 225 5 min 64,3 klux 440 W/m
01.09.2016 11:39 22,6 C 22,2 C 64 % 1020,6 hPa 0,0 l/m 17,4 km/h (3 Bft) W67.5 275 5 min 64,7 klux 443 W/m
01.09.2016 11:44 23,0 C 22,2 C 63 % 1020,6 hPa 0,0 l/m 19,1 km/h (3 Bft) SW45 230 5 min 67,3 klux 460 W/m
01.09.2016 11:49 23,1 C 22,5 C 63 % 1020,6 hPa 0,0 l/m 20,8 km/h (4 Bft) W-SW45 240 5 min 71,1 klux 486 W/m
01.09.2016 11:54 23,2 C 22,8 C 62 % 1020,6 hPa 0,0 l/m 23,0 km/h (4 Bft) W45 270 5 min 66,7 klux 456 W/m
01.09.2016 11:59 22,9 C 22,6 C 62 % 1020,6 hPa 0,0 l/m 25,0 km/h (4 Bft) W-NW45 290 5 min 68,9 klux 471 W/m
01.09.2016 12:05 22,9 C 22,5 C 63 % 1020,6 hPa 0,0 l/m 21,1 km/h (4 Bft) W45 265 6 min 70,4 klux 482 W/m
01.09.2016 12:09 23,2 C 22,4 C 61 % 1020,6 hPa 0,0 l/m 18,5 km/h (3 Bft) SW45 230 4 min 70,6 klux 483 W/m
01.09.2016 12:14 23,3 C 23,1 C 62 % 1020,6 hPa 0,0 l/m 21,9 km/h (4 Bft) W45 260 5 min 72,3 klux 495 W/m
01.09.2016 12:19 23,3 C 22,7 C 62 % 1020,6 hPa 0,0 l/m 16,6 km/h (3 Bft) W45 265 5 min 74,5 klux 510 W/m
01.09.2016 12:24 23,7 C 22,9 C 60 % 1020,6 hPa 0,0 l/m 25,0 km/h (4 Bft) W22.5 280 5 min 76,8 klux 525 W/m
01.09.2016 12:30 23,5 C 22,9 C 60 % 1020,6 hPa 0,0 l/m 25,8 km/h (4 Bft) W-NW22.5 285 6 min 73,0 klux 499 W/m
01.09.2016 12:34 23,2 C 22,7 C 61 % 1020,6 hPa 0,0 l/m 18,8 km/h (3 Bft) W-NW22.5 285 0 min 52,4 klux 358 W/m
01.09.2016 12:39 23,2 C 23,1 C 61 % 1020,6 hPa 0,0 l/m 23,1 km/h (4 Bft) W-NW22.5 285 0 min 43,2 klux 295 W/m
01.09.2016 12:44 23,2 C 23,0 C 62 % 1020,6 hPa 0,0 l/m 22,3 km/h (4 Bft) W-SW67.5 250 5 min 74,8 klux 512 W/m
01.09.2016 12:49 23,7 C 23,0 C 60 % 1020,6 hPa 0,0 l/m 23,0 km/h (4 Bft) W-SW45 245 5 min 90,2 klux 617 W/m
01.09.2016 12:54 24,1 C 23,5 C 59 % 1020,6 hPa 0,0 l/m 19,6 km/h (3 Bft) W-NW45 285 5 min 83,2 klux 569 W/m
01.09.2016 12:59 24,2 C 23,4 C 59 % 1020,6 hPa 0,0 l/m 19,6 km/h (3 Bft) W-NW45 285 5 min 83,1 klux 568 W/m
01.09.2016 13:04 24,4 C 23,4 C 58 % 1020,6 hPa 0,0 l/m 21,6 km/h (4 Bft) W-SW45 245 0 min 45,6 klux 312 W/m
01.09.2016 13:09 24,1 C 23,7 C 57 % 1020,6 hPa 0,0 l/m 20,5 km/h (4 Bft) W-SW67.5 255 5 min 72,8 klux 498 W/m
01.09.2016 13:14 23,5 C 23,2 C 59 % 1020,6 hPa 0,0 l/m 18,0 km/h (3 Bft) W45 275 0 min 19,3 klux 132 W/m
01.09.2016 13:19 23,4 C 23,2 C 60 % 1020,6 hPa 0,0 l/m 19,5 km/h (3 Bft) W-NW22.5 290 5 min 90,2 klux 617 W/m
01.09.2016 13:24 24,2 C 23,8 C 59 % 1020,6 hPa 0,0 l/m 19,7 km/h (3 Bft) W45 275 5 min 80,6 klux 551 W/m
01.09.2016 13:29 24,5 C 24,3 C 57 % 1020,6 hPa 0,0 l/m 17,1 km/h (3 Bft) W-NW45 295 5 min 85,8 klux 587 W/m
01.09.2016 13:34 24,4 C 23,9 C 57 % 1020,6 hPa 0,0 l/m 18,3 km/h (3 Bft) W45 260 5 min 83,6 klux 572 W/m
01.09.2016 13:39 24,3 C 24,3 C 56 % 1020,6 hPa 0,0 l/m 17,2 km/h (3 Bft) W-NW22.5 285 0 min 43,2 klux 295 W/m
01.09.2016 13:45 24,1 C 23,7 C 56 % 1020,6 hPa 0,0 l/m 21,3 km/h (4 Bft) W45 270 0 min 30,0 klux 205 W/m
01.09.2016 13:49 24,4 C 24,1 C 56 % 1020,6 hPa 0,0 l/m 21,5 km/h (4 Bft) W-SW45 245 0 min 31,4 klux 215 W/m
01.09.2016 13:54 24,8 C 25,0 C 56 % 1020,6 hPa 0,0 l/m 19,9 km/h (4 Bft) W-NW45 290 5 min 86,2 klux 590 W/m
01.09.2016 13:59 25,4 C 24,7 C 52 % 1020,6 hPa 0,0 l/m 21,1 km/h (4 Bft) W45 265 5 min 93,2 klux 637 W/m
01.09.2016 14:05 25,5 C 25,2 C 52 % 1020,6 hPa 0,0 l/m 25,4 km/h (4 Bft) W-SW45 250 6 min 80,7 klux 552 W/m
01.09.2016 14:09 25,0 C 24,5 C 54 % 1020,6 hPa 0,0 l/m 23,6 km/h (4 Bft) W45 270 4 min 57,5 klux 393 W/m
01.09.2016 14:14 25,5 C 24,9 C 53 % 1020,6 hPa 0,0 l/m 20,0 km/h (4 Bft) W-NW45 285 5 min 58,9 klux 403 W/m
01.09.2016 14:19 25,2 C 24,9 C 53 % 1020,6 hPa 0,0 l/m 26,5 km/h (4 Bft) W-NW45 285 5 min 78,8 klux 539 W/m
01.09.2016 14:24 24,8 C 24,7 C 54 % 1020,6 hPa 0,0 l/m 26,0 km/h (4 Bft) W45 275 5 min 90,4 klux 618 W/m
01.09.2016 14:30 25,2 C 24,7 C 52 % 1020,6 hPa 0,0 l/m 26,3 km/h (4 Bft) W22.5 280 0 min 31,1 klux 213 W/m
01.09.2016 14:34 25,1 C 24,8 C 55 % 1020,6 hPa 0,0 l/m 28,8 km/h (5 Bft) W45 280 0 min 22,0 klux 150 W/m
01.09.2016 14:39 24,7 C 24,3 C 55 % 1019,6 hPa 0,0 l/m 23,5 km/h (4 Bft) W-NW45 300 0 min 13,6 klux 93 W/m
01.09.2016 14:44 24,0 C 24,0 C 58 % 1019,6 hPa 0,0 l/m 25,9 km/h (4 Bft) NW45 305 0 min 11,9 klux 81 W/m
01.09.2016 14:49 23,6 C 24,0 C 59 % 1019,6 hPa 0,0 l/m 19,8 km/h (3 Bft) W-NW45 290 0 min 12,6 klux 86 W/m
01.09.2016 14:54 23,6 C 23,9 C 60 % 1019,6 hPa 0,0 l/m 22,4 km/h (4 Bft) W-NW45 300 0 min 13,9 klux 95 W/m
01.09.2016 14:59 23,5 C 23,7 C 60 % 1019,6 hPa 0,0 l/m 22,1 km/h (4 Bft) NW22.5 310 0 min 17,5 klux 120 W/m
01.09.2016 15:04 23,7 C 24,2 C 59 % 1019,6 hPa 0,0 l/m 20,7 km/h (4 Bft) W-NW45 285 0 min 22,7 klux 155 W/m
01.09.2016 15:09 24,4 C 24,2 C 58 % 1019,6 hPa 0,0 l/m 26,0 km/h (4 Bft) W45 265 0 min 50,4 klux 345 W/m
01.09.2016 15:15 24,4 C 24,3 C 58 % 1019,6 hPa 0,0 l/m 24,9 km/h (4 Bft) W-NW45 285 0 min 28,2 klux 193 W/m
01.09.2016 15:19 24,4 C 24,1 C 58 % 1019,6 hPa 0,0 l/m 28,7 km/h (5 Bft) W45 275 0 min 24,5 klux 168 W/m
01.09.2016 15:24 24,9 C 24,4 C 57 % 1019,6 hPa 0,0 l/m 27,6 km/h (5 Bft) W45 270 5 min 81,2 klux 555 W/m
01.09.2016 15:29 25,0 C 25,0 C 56 % 1019,6 hPa 0,0 l/m 26,7 km/h (4 Bft) W-SW45 250 5 min 75,6 klux 517 W/m
01.09.2016 15:34 24,3 C 24,4 C 58 % 1019,6 hPa 0,0 l/m 23,6 km/h (4 Bft) W-NW22.5 295 0 min 25,4 klux 174 W/m
01.09.2016 15:39 25,0 C 24,9 C 58 % 1019,6 hPa 0,0 l/m 24,0 km/h (4 Bft) W-NW22.5 285 5 min 80,6 klux 551 W/m
01.09.2016 15:44 25,2 C 24,9 C 56 % 1019,6 hPa 0,0 l/m 24,9 km/h (4 Bft) W-NW45 295 5 min 56,9 klux 389 W/m
01.09.2016 15:49 25,2 C 25,5 C 54 % 1019,6 hPa 0,0 l/m 25,2 km/h (4 Bft) W-NW22.5 285 0 min 21,6 klux 148 W/m
01.09.2016 15:54 24,8 C 25,1 C 56 % 1019,6 hPa 0,0 l/m 31,2 km/h (5 Bft) W-NW22.5 285 0 min 21,1 klux 144 W/m
01.09.2016 15:59 25,0 C 24,9 C 57 % 1019,6 hPa 0,0 l/m 23,0 km/h (4 Bft) W45 270 5 min 69,4 klux 475 W/m
01.09.2016 16:04 24,8 C 24,8 C 56 % 1019,6 hPa 0,0 l/m 25,8 km/h (4 Bft) W45 275 0 min 22,8 klux 156 W/m
01.09.2016 16:09 24,6 C 24,6 C 56 % 1019,6 hPa 0,0 l/m 22,0 km/h (4 Bft) W45 265 0 min 23,6 klux 161 W/m
01.09.2016 16:14 24,8 C 25,2 C 56 % 1019,6 hPa 0,0 l/m 24,8 km/h (4 Bft) W22.5 265 5 min 45,9 klux 314 W/m
01.09.2016 16:19 24,7 C 25,2 C 57 % 1019,6 hPa 0,0 l/m 25,6 km/h (4 Bft) W-NW22.5 295 0 min 40,5 klux 277 W/m
01.09.2016 16:24 24,5 C 24,6 C 57 % 1019,6 hPa 0,0 l/m 21,5 km/h (4 Bft) W67.5 280 0 min 35,9 klux 246 W/m
01.09.2016 16:29 24,6 C 25,1 C 57 % 1019,6 hPa 0,0 l/m 17,9 km/h (3 Bft) W45 270 5 min 60,6 klux 415 W/m
01.09.2016 16:34 25,1 C 24,6 C 56 % 1019,6 hPa 0,0 l/m 21,8 km/h (4 Bft) W45 260 0 min 28,1 klux 192 W/m
01.09.2016 16:39 24,3 C 24,5 C 58 % 1019,6 hPa 0,0 l/m 23,1 km/h (4 Bft) W-NW22.5 295 0 min 14,2 klux 97 W/m
01.09.2016 16:44 23,8 C 24,3 C 59 % 1019,6 hPa 0,0 l/m 22,8 km/h (4 Bft) W-NW22.5 295 0 min 10,2 klux 70 W/m
01.09.2016 16:49 23,6 C 24,3 C 59 % 1019,6 hPa 0,0 l/m 23,6 km/h (4 Bft) W-NW45 285 0 min 9,9 klux 68 W/m
01.09.2016 16:54 23,8 C 24,3 C 59 % 1019,6 hPa 0,0 l/m 24,0 km/h (4 Bft) W-NW45 285 0 min 12,4 klux 85 W/m
01.09.2016 16:59 23,6 C 24,2 C 59 % 1019,6 hPa 0,0 l/m 29,0 km/h (5 Bft) W-NW22.5 290 0 min 18,3 klux 125 W/m
01.09.2016 17:04 23,5 C 24,1 C 59 % 1019,6 hPa 0,0 l/m 26,5 km/h (4 Bft) W-NW22.5 295 0 min 18,3 klux 125 W/m
01.09.2016 17:09 23,5 C 24,1 C 59 % 1019,6 hPa 0,0 l/m 24,4 km/h (4 Bft) W-NW22.5 285 0 min 13,8 klux 94 W/m
01.09.2016 17:14 23,6 C 24,3 C 60 % 1019,6 hPa 0,0 l/m 25,0 km/h (4 Bft) W-NW22.5 285 5 min 49,3 klux 337 W/m
01.09.2016 17:19 24,0 C 24,6 C 57 % 1019,6 hPa 0,0 l/m 27,3 km/h (5 Bft) W-NW45 290 0 min 21,3 klux 146 W/m
01.09.2016 17:24 23,8 C 24,2 C 58 % 1019,6 hPa 0,0 l/m 23,5 km/h (4 Bft) W-NW45 295 0 min 18,6 klux 127 W/m
01.09.2016 17:29 23,6 C 24,2 C 57 % 1019,6 hPa 0,0 l/m 21,6 km/h (4 Bft) W45 270 0 min 11,3 klux 77 W/m
01.09.2016 17:34 23,6 C 24,0 C 58 % 1019,6 hPa 0,0 l/m 24,3 km/h (4 Bft) W45 275 0 min 21,7 klux 148 W/m
01.09.2016 17:40 24,1 C 24,4 C 58 % 1019,6 hPa 0,0 l/m 25,8 km/h (4 Bft) W22.5 270 6 min 41,3 klux 282 W/m
01.09.2016 17:44 24,2 C 24,2 C 57 % 1019,6 hPa 0,0 l/m 22,0 km/h (4 Bft) W67.5 280 4 min 34,4 klux 235 W/m
01.09.2016 17:49 24,2 C 24,3 C 57 % 1019,6 hPa 0,0 l/m 27,6 km/h (5 Bft) W22.5 275 0 min 17,4 klux 119 W/m
01.09.2016 17:54 24,2 C 24,3 C 57 % 1019,6 hPa 0,0 l/m 27,6 km/h (5 Bft) W22.5 275 5 min 29,0 klux 198 W/m
01.09.2016 17:59 24,0 C 24,2 C 57 % 1019,6 hPa 0,0 l/m 23,0 km/h (4 Bft) W-NW22.5 295 0 min 23,2 klux 159 W/m
01.09.2016 18:04 24,0 C 24,2 C 57 % 1019,6 hPa 0,0 l/m 23,0 km/h (4 Bft) W-NW22.5 300 0 min 17,1 klux 117 W/m
01.09.2016 18:09 23,9 C 24,0 C 58 % 1019,6 hPa 0,0 l/m 17,3 km/h (3 Bft) W-NW22.5 285 5 min 28,3 klux 194 W/m
01.09.2016 18:14 24,0 C 24,0 C 58 % 1019,6 hPa 0,0 l/m 17,5 km/h (3 Bft) NW45 310 0 min 20,4 klux 140 W/m
01.09.2016 18:19 23,9 C 24,0 C 57 % 1019,6 hPa 0,0 l/m 16,3 km/h (3 Bft) W-NW45 295 5 min 25,7 klux 176 W/m
01.09.2016 18:25 23,7 C 23,8 C 58 % 1019,6 hPa 0,0 l/m 17,9 km/h (3 Bft) W-NW45 300 0 min 15,5 klux 106 W/m
01.09.2016 18:29 23,5 C 23,8 C 59 % 1019,6 hPa 0,0 l/m 16,7 km/h (3 Bft) NW45 320 0 min 9,6 klux 65 W/m
01.09.2016 18:34 23,3 C 23,8 C 59 % 1019,6 hPa 0,0 l/m 13,2 km/h (3 Bft) W-NW45 295 0 min 9,3 klux 64 W/m
01.09.2016 18:39 23,3 C 23,7 C 59 % 1019,6 hPa 0,0 l/m 16,6 km/h (3 Bft) W-NW45 285 0 min 9,8 klux 67 W/m
01.09.2016 18:44 23,2 C 23,7 C 59 % 1019,6 hPa 0,0 l/m 15,5 km/h (3 Bft) W-NW45 300 0 min 8,65 klux 59 W/m
01.09.2016 18:50 23,0 C 23,7 C 59 % 1019,6 hPa 0,0 l/m 15,5 km/h (3 Bft) NW22.5 305 0 min 7,46 klux 51 W/m
01.09.2016 18:54 22,9 C 23,6 C 59 % 1019,6 hPa 0,0 l/m 16,3 km/h (3 Bft) W-NW45 295 0 min 7,19 klux 49 W/m
01.09.2016 18:59 22,9 C 23,6 C 59 % 1019,6 hPa 0,0 l/m 14,6 km/h (3 Bft) NW45 305 0 min 6,16 klux 42 W/m
01.09.2016 19:04 22,9 C 23,6 C 59 % 1019,6 hPa 0,0 l/m 16,3 km/h (3 Bft) W-NW22.5 295 0 min 4,36 klux 30 W/m
01.09.2016 19:10 22,9 C 23,4 C 59 % 1019,6 hPa 0,0 l/m 15,2 km/h (3 Bft) NW45 305 0 min 4,30 klux 29 W/m
01.09.2016 19:14 22,8 C 23,5 C 60 % 1019,6 hPa 0,0 l/m 12,0 km/h (2 Bft) W-NW22.5 295 0 min 5,03 klux 34 W/m
01.09.2016 19:19 22,8 C 23,4 C 60 % 1019,6 hPa 0,0 l/m 13,0 km/h (3 Bft) W-NW45 300 0 min 4,29 klux 29 W/m
01.09.2016 19:24 22,8 C 23,4 C 61 % 1019,6 hPa 0,0 l/m 15,1 km/h (3 Bft) W-NW22.5 290 0 min 3,77 klux 26 W/m
01.09.2016 19:29 22,6 C 23,4 C 61 % 1019,6 hPa 0,0 l/m 15,6 km/h (3 Bft) W-NW45 300 0 min 2,29 klux 16 W/m
01.09.2016 19:35 22,5 C 23,3 C 60 % 1019,6 hPa 0,0 l/m 16,1 km/h (3 Bft) W-NW45 300 0 min 1,72 klux 12 W/m
01.09.2016 19:39 22,4 C 23,3 C 59 % 1019,6 hPa 0,0 l/m 18,5 km/h (3 Bft) NW45 305 0 min 988 lux 7 W/m
01.09.2016 19:44 22,4 C 23,2 C 59 % 1020,7 hPa 0,0 l/m 20,7 km/h (4 Bft) W-NW45 295 0 min 618 lux 4 W/m
01.09.2016 19:49 22,4 C 23,3 C 59 % 1020,7 hPa 0,0 l/m 15,5 km/h (3 Bft) W-NW22.5 300 0 min 748 lux 5 W/m
01.09.2016 19:54 22,4 C 23,2 C 59 % 1020,7 hPa 0,0 l/m 18,1 km/h (3 Bft) W-NW22.5 300 0 min 776 lux 5 W/m
01.09.2016 19:59 22,3 C 23,2 C 59 % 1020,7 hPa 0,0 l/m 18,5 km/h (3 Bft) W-NW45 295 0 min 940 lux 6 W/m
01.09.2016 20:04 22,2 C 23,2 C 59 % 1020,7 hPa 0,0 l/m 16,1 km/h (3 Bft) W-NW22.5 295 0 min 1,13 klux 8 W/m
01.09.2016 20:09 22,2 C 23,2 C 59 % 1020,7 hPa 0,0 l/m 15,1 km/h (3 Bft) W-NW22.5 290 0 min 870 lux 6 W/m
01.09.2016 20:14 22,1 C 23,1 C 59 % 1020,7 hPa 0,0 l/m 15,5 km/h (3 Bft) W-NW22.5 285 0 min 840 lux 0 W/m
01.09.2016 20:20 21,9 C 23,0 C 59 % 1020,7 hPa 0,0 l/m 13,8 km/h (3 Bft) W-NW22.5 300 0 min 456 lux 0 W/m
01.09.2016 20:24 21,8 C 23,1 C 59 % 1020,7 hPa 0,0 l/m 11,6 km/h (2 Bft) W-NW22.5 290 0 min 217 lux 0 W/m
01.09.2016 20:29 21,7 C 22,9 C 60 % 1020,7 hPa 0,0 l/m 11,5 km/h (2 Bft) W22.5 280 0 min 170 lux 0 W/m
01.09.2016 20:34 21,5 C 22,8 C 60 % 1020,7 hPa 0,0 l/m 9,8 km/h (2 Bft) NW22.5 305 0 min 75 lux 0 W/m
01.09.2016 20:39 21,5 C 22,8 C 60 % 1020,7 hPa 0,0 l/m 8,0 km/h (2 Bft) W-NW22.5 290 0 min 35 lux 0 W/m
01.09.2016 20:44 21,3 C 22,7 C 61 % 1020,7 hPa 0,0 l/m 10,2 km/h (2 Bft) W-NW 285 0 min 9 lux 0 W/m
01.09.2016 20:49 21,0 C 22,7 C 61 % 1020,7 hPa 0,0 l/m 10,3 km/h (2 Bft) W-NW22.5 285 0 min 6 lux 0 W/m
01.09.2016 20:54 21,0 C 22,6 C 61 % 1020,7 hPa 0,0 l/m 11,2 km/h (2 Bft) W-NW22.5 295 0 min 5 lux 0 W/m
01.09.2016 20:59 21,0 C 22,5 C 60 % 1020,7 hPa 0,0 l/m 11,2 km/h (2 Bft) W-NW22.5 290 0 min 2 lux 0 W/m
01.09.2016 21:05 20,8 C 22,6 C 60 % 1020,7 hPa 0,0 l/m 12,6 km/h (3 Bft) W-NW22.5 300 0 min 0 lux 0 W/m
01.09.2016 21:09 20,7 C 22,6 C 60 % 1020,7 hPa 0,0 l/m 10,2 km/h (2 Bft) W-NW22.5 295 0 min 0 lux 0 W/m
01.09.2016 21:14 20,6 C 22,6 C 60 % 1020,7 hPa 0,0 l/m 6,8 km/h (2 Bft) NW 315 0 min 0 lux 0 W/m
01.09.2016 21:19 20,5 C 22,5 C 60 % 1020,7 hPa 0,0 l/m 1,0 km/h (0 Bft) NW 325 0 min 0 lux 0 W/m
01.09.2016 21:24 20,2 C 22,6 C 61 % 1020,7 hPa 0,0 l/m 0,0 km/h (0 Bft) NW 325 0 min 0 lux 0 W/m
01.09.2016 21:30 20,0 C 22,5 C 62 % 1020,7 hPa 0,0 l/m 0,0 km/h (0 Bft) NW 325 0 min 0 lux 0 W/m
01.09.2016 21:34 19,7 C 22,5 C 62 % 1020,7 hPa 0,0 l/m 0,0 km/h (0 Bft) NW 325 0 min 0 lux 0 W/m
01.09.2016 21:39 19,5 C 22,4 C 64 % 1020,7 hPa 0,0 l/m 0,1 km/h (0 Bft) N-NW22.5 330 0 min 0 lux 0 W/m
01.09.2016 21:44 19,4 C 22,3 C 65 % 1020,7 hPa 0,0 l/m 5,6 km/h (2 Bft) N 5 0 min 0 lux 0 W/m
01.09.2016 21:49 19,6 C 22,3 C 65 % 1020,7 hPa 0,0 l/m 8,1 km/h (2 Bft) N22.5 5 0 min 0 lux 0 W/m
01.09.2016 21:55 19,6 C 22,3 C 65 % 1020,7 hPa 0,0 l/m 7,1 km/h (2 Bft) N-NO67.5 20 0 min 0 lux 0 W/m
01.09.2016 21:59 19,6 C 22,3 C 66 % 1020,7 hPa 0,0 l/m 6,8 km/h (2 Bft) N-NO22.5 20 0 min 0 lux 0 W/m
01.09.2016 22:04 19,6 C 22,4 C 66 % 1020,7 hPa 0,0 l/m 5,7 km/h (2 Bft) N-NO 25 0 min 0 lux 0 W/m
01.09.2016 22:09 19,4 C 22,3 C 66 % 1020,7 hPa 0,0 l/m 1,6 km/h (1 Bft) N 5 0 min 0 lux 0 W/m
01.09.2016 22:15 19,3 C 22,2 C 67 % 1020,7 hPa 0,0 l/m 1,9 km/h (1 Bft) N-NO 15 0 min 0 lux 0 W/m
01.09.2016 22:19 19,3 C 22,4 C 67 % 1020,7 hPa 0,0 l/m 0,4 km/h (0 Bft) N-NO 15 0 min 0 lux 0 W/m
01.09.2016 22:24 19,1 C 22,5 C 67 % 1020,7 hPa 0,0 l/m 3,6 km/h (1 Bft) N 10 0 min 0 lux 0 W/m
01.09.2016 22:29 18,9 C 22,5 C 68 % 1020,7 hPa 0,0 l/m 0,4 km/h (0 Bft) N 10 0 min 0 lux 0 W/m
01.09.2016 22:34 18,9 C 22,3 C 68 % 1020,7 hPa 0,0 l/m 3,4 km/h (1 Bft) N 5 0 min 0 lux 0 W/m
01.09.2016 22:40 18,8 C 22,4 C 69 % 1020,7 hPa 0,0 l/m 4,4 km/h (1 Bft) N 5 0 min 0 lux 0 W/m
01.09.2016 22:44 18,6 C 22,3 C 69 % 1020,7 hPa 0,0 l/m 0,4 km/h (0 Bft) N 5 0 min 0 lux 0 W/m
01.09.2016 22:49 18,6 C 22,3 C 69 % 1020,7 hPa 0,0 l/m 3,9 km/h (1 Bft) N 5 0 min 0 lux 0 W/m
01.09.2016 22:54 18,4 C 22,4 C 69 % 1020,7 hPa 0,0 l/m 4,0 km/h (1 Bft) N 10 0 min 0 lux 0 W/m
01.09.2016 22:59 18,1 C 22,3 C 69 % 1020,7 hPa 0,0 l/m 0,0 km/h (0 Bft) N 5 0 min 0 lux 0 W/m
01.09.2016 23:04 17,8 C 22,3 C 69 % 1020,7 hPa 0,0 l/m 0,0 km/h (0 Bft) N 5 0 min 0 lux 0 W/m
01.09.2016 23:09 17,6 C 22,3 C 69 % 1020,7 hPa 0,0 l/m 0,0 km/h (0 Bft) N 5 0 min 0 lux 0 W/m
01.09.2016 23:14 17,4 C 22,3 C 71 % 1020,7 hPa 0,0 l/m 0,0 km/h (0 Bft) N 5 0 min 0 lux 0 W/m
01.09.2016 23:19 17,4 C 22,3 C 72 % 1020,7 hPa 0,0 l/m 0,0 km/h (0 Bft) N 5 0 min 0 lux 0 W/m
01.09.2016 23:24 17,3 C 22,3 C 73 % 1020,7 hPa 0,0 l/m 0,0 km/h (0 Bft) N 5 0 min 0 lux 0 W/m
01.09.2016 23:29 17,1 C 22,2 C 72 % 1020,7 hPa 0,0 l/m 0,0 km/h (0 Bft) N 5 0 min 0 lux 0 W/m
01.09.2016 23:34 16,9 C 22,2 C 72 % 1020,7 hPa 0,0 l/m 0,0 km/h (0 Bft) N 5 0 min 0 lux 0 W/m
01.09.2016 23:39 16,8 C 22,2 C 73 % 1020,7 hPa 0,0 l/m 0,0 km/h (0 Bft) N 5 0 min 0 lux 0 W/m
01.09.2016 23:44 16,8 C 22,2 C 74 % 1020,7 hPa 0,0 l/m 0,0 km/h (0 Bft) N 5 0 min 0 lux 0 W/m
01.09.2016 23:49 16,8 C 22,0 C 74 % 1020,7 hPa 0,0 l/m 0,0 km/h (0 Bft) N 5 0 min 0 lux 0 W/m
01.09.2016 23:54 16,6 C 22,0 C 74 % 1020,7 hPa 0,0 l/m 0,0 km/h (0 Bft) N 5 0 min 0 lux 0 W/m
01.09.2016 23:59 16,6 C 22,1 C 74 % 1020,7 hPa 0,0 l/m 0,6 km/h (0 Bft) N-NO22.5 15 0 min 0 lux 0 W/m
_ Min-Zeit 06:49 08:24 13:59 00:05 - 00:05 - - - - -
Minimum _ 14,8 C 19,0 C 52 % 1018,7 hPa - 0,0 km/h (0 Bft) - - - - -
_ Max-Zeit 14:05 15:49 06:59 10:09 00:05 15:54 - - 09:00 13:59 13:59
Maximum _ 25,5 C 25,5 C 79 % 1021,7 hPa 0,0 l/m 31,2 km/h
W-NW (5 Bft)
- - 6 min 93,2 klux 637 W/m
Durchschnitt _ 19,9 C 22,4 C 66 % 1020,1 hPa #0,0 l/m 11,0 km/h (2 Bft) W-NW - #6:05 h 19,5 klux 240 W/m